Time,TemperatureF,DewpointF,PressureIn,WindDirection,WindDirectionDegrees,WindSpeedMPH,WindSpeedGustMPH,Humidity,HourlyPrecipIn,Conditions,Clouds,dailyrainin,SoftwareType,DateUTC
2013-02-25 00:01:00,28.6,10.8,25.93,WSW,249,0.0,0.0,47,0.00,,,0.00,WUHU216WMR968SP,2013-02-25 08:01:00,
2013-02-25 00:06:00,28.6,10.8,25.93,WSW,249,0.0,0.0,47,0.00,,,0.00,WUHU216WMR968SP,2013-02-25 08:06:00,
2013-02-25 00:11:00,28.6,11.3,25.93,WSW,249,0.0,0.0,48,0.00,,,0.00,WUHU216WMR968SP,2013-02-25 08:11:00,
2013-02-25 00:16:00,28.6,11.8,25.93,WSW,249,0.0,0.0,49,0.00,,,0.00,WUHU216WMR968SP,2013-02-25 08:16:00,
2013-02-25 00:21:00,28.4,11.6,25.90,WSW,249,0.0,0.0,49,0.00,,,0.00,WUHU216WMR968SP,2013-02-25 08:21:00,
2013-02-25 00:26:00,28.4,12.1,25.90,WSW,249,0.0,0.0,50,0.00,,,0.00,WUHU216WMR968SP,2013-02-25 08:26:00,
2013-02-25 00:31:00,28.4,12.5,25.90,WSW,250,0.0,0.0,51,0.00,,,0.00,WUHU216WMR968SP,2013-02-25 08:31:00,
2013-02-25 00:36:00,28.6,12.7,25.90,WSW,250,0.0,0.0,51,0.00,,,0.00,WUHU216WMR968SP,2013-02-25 08:36:00,
2013-02-25 00:41:00,28.6,12.7,25.90,WSW,250,0.0,0.0,51,0.00,,,0.00,WUHU216WMR968SP,2013-02-25 08:41:00,
2013-02-25 00:46:00,28.6,12.7,25.90,WSW,249,0.0,0.0,51,0.00,,,0.00,WUHU216WMR968SP,2013-02-25 08:46:00,
2013-02-25 00:51:00,28.8,12.9,25.90,WSW,249,0.0,0.0,51,0.00,,,0.00,WUHU216WMR968SP,2013-02-25 08:51:00,
2013-02-25 00:56:00,28.8,12.9,25.90,WSW,249,0.0,0.0,51,0.00,,,0.00,WUHU216WMR968SP,2013-02-25 08:56:00,
2013-02-25 01:01:00,28.9,13.0,25.90,WSW,249,2.7,3.6,51,0.00,,,0.00,WUHU216WMR968SP,2013-02-25 09:01:00,
2013-02-25 01:06:00,29.1,13.2,25.90,WSW,249,0.0,3.6,51,0.00,,,0.00,WUHU216WMR968SP,2013-02-25 09:06:00,
2013-02-25 01:11:00,29.3,13.3,25.90,WSW,249,0.0,2.2,51,0.00,,,0.00,WUHU216WMR968SP,2013-02-25 09:11:00,
2013-02-25 01:16:00,29.3,13.3,25.90,WSW,249,0.0,0.0,51,0.00,,,0.00,WUHU216WMR968SP,2013-02-25 09:16:00,
2013-02-25 01:21:00,29.5,13.5,25.90,WSW,249,0.0,0.0,51,0.00,,,0.00,WUHU216WMR968SP,2013-02-25 09:21:00,
2013-02-25 01:26:00,29.5,13.5,25.90,WSW,249,0.0,0.0,51,0.00,,,0.00,WUHU216WMR968SP,2013-02-25 09:26:00,
2013-02-25 01:31:00,29.7,13.7,25.90,WSW,249,0.0,0.0,51,0.00,,,0.00,WUHU216WMR968SP,2013-02-25 09:31:00,
2013-02-25 01:36:00,29.7,13.7,25.90,WSW,249,0.0,0.0,51,0.00,,,0.00,WUHU216WMR968SP,2013-02-25 09:36:00,
2013-02-25 01:41:00,29.7,12.3,25.90,WSW,249,0.0,0.0,48,0.00,,,0.00,WUHU216WMR968SP,2013-02-25 09:41:00,
2013-02-25 01:46:00,29.8,12.4,25.90,WSW,249,0.0,0.0,48,0.00,,,0.00,WUHU216WMR968SP,2013-02-25 09:46:00,
2013-02-25 01:51:00,29.8,12.9,25.90,WSW,249,0.0,0.0,49,0.00,,,0.00,WUHU216WMR968SP,2013-02-25 09:51:00,
2013-02-25 01:56:00,30.0,13.1,25.90,WSW,249,0.0,0.0,49,0.00,,,0.00,WUHU216WMR968SP,2013-02-25 09:56:00,
2013-02-25 02:01:00,29.8,11.9,25.90,WSW,249,0.0,0.0,47,0.00,,,0.00,WUHU216WMR968SP,2013-02-25 10:01:00,
2013-02-25 02:06:00,30.0,12.6,25.90,WSW,249,0.0,0.0,48,0.00,,,0.00,WUHU216WMR968SP,2013-02-25 10:06:00,
2013-02-25 02:11:00,30.0,12.1,25.90,WSW,249,0.0,0.0,47,0.00,,,0.00,WUHU216WMR968SP,2013-02-25 10:11:00,
2013-02-25 02:16:00,30.0,12.6,25.90,WSW,249,0.0,0.0,48,0.00,,,0.00,WUHU216WMR968SP,2013-02-25 10:16:00,
2013-02-25 02:21:00,30.0,12.6,25.87,WSW,249,0.0,0.0,48,0.00,,,0.00,WUHU216WMR968SP,2013-02-25 10:21:00,
2013-02-25 02:26:00,30.0,12.6,25.87,WSW,249,0.0,2.7,48,0.00,,,0.00,WUHU216WMR968SP,2013-02-25 10:26:00,
2013-02-25 02:31:00,30.0,12.1,25.87,WSW,249,0.0,2.7,47,0.00,,,0.00,WUHU216WMR968SP,2013-02-25 10:31:00,
2013-02-25 02:36:00,30.0,12.1,25.87,WSW,249,0.0,0.0,47,0.00,,,0.00,WUHU216WMR968SP,2013-02-25 10:36:00,
2013-02-25 02:41:00,30.0,12.1,25.87,WSW,249,0.0,0.0,47,0.00,,,0.00,WUHU216WMR968SP,2013-02-25 10:41:00,
2013-02-25 02:46:00,29.8,11.9,25.87,WSW,249,0.0,0.0,47,0.00,,,0.00,WUHU216WMR968SP,2013-02-25 10:46:00,
2013-02-25 02:51:00,29.8,11.9,25.87,WSW,249,0.0,0.0,47,0.00,,,0.00,WUHU216WMR968SP,2013-02-25 10:51:00,
2013-02-25 02:56:00,29.8,12.4,25.87,WSW,249,0.0,0.0,48,0.00,,,0.00,WUHU216WMR968SP,2013-02-25 10:56:00,
2013-02-25 03:01:00,29.8,12.4,25.87,WSW,249,0.0,0.0,48,0.00,,,0.00,WUHU216WMR968SP,2013-02-25 11:01:00,
2013-02-25 03:06:00,30.0,12.1,25.87,WSW,249,0.0,0.0,47,0.00,,,0.00,WUHU216WMR968SP,2013-02-25 11:06:00,
2013-02-25 03:11:00,30.2,12.8,25.87,WSW,249,0.0,0.0,48,0.00,,,0.00,WUHU216WMR968SP,2013-02-25 11:11:00,
2013-02-25 03:16:00,30.4,12.5,25.87,WSW,249,0.0,3.1,47,0.00,,,0.00,WUHU216WMR968SP,2013-02-25 11:16:00,
2013-02-25 03:21:00,30.4,12.0,25.87,WSW,250,2.2,3.1,46,0.00,,,0.00,WUHU216WMR968SP,2013-02-25 11:21:00,
2013-02-25 03:26:00,30.4,12.0,25.87,WSW,255,0.0,3.1,46,0.00,,,0.00,WUHU216WMR968SP,2013-02-25 11:26:00,
2013-02-25 03:31:00,30.2,11.8,25.87,WSW,255,0.0,3.1,46,0.00,,,0.00,WUHU216WMR968SP,2013-02-25 11:31:00,
2013-02-25 03:36:00,29.7,12.3,25.87,SW,220,0.0,3.1,48,0.00,,,0.00,WUHU216WMR968SP,2013-02-25 11:36:00,
2013-02-25 03:41:00,29.5,11.6,25.87,SSW,204,0.0,4.0,47,0.00,,,0.00,WUHU216WMR968SP,2013-02-25 11:41:00,
2013-02-25 03:46:00,29.8,11.4,25.87,SSW,203,2.2,4.0,46,0.00,,,0.00,WUHU216WMR968SP,2013-02-25 11:46:00,
2013-02-25 03:51:00,30.0,11.1,25.87,SSW,203,0.0,4.0,45,0.00,,,0.00,WUHU216WMR968SP,2013-02-25 11:51:00,
2013-02-25 03:56:00,30.0,11.6,25.87,SSW,203,0.0,3.1,46,0.00,,,0.00,WUHU216WMR968SP,2013-02-25 11:56:00,
2013-02-25 04:01:00,30.2,11.3,25.87,South,178,4.0,5.8,45,0.00,,,0.00,WUHU216WMR968SP,2013-02-25 12:01:00,
2013-02-25 04:06:00,30.2,11.3,25.84,SSE,162,3.6,5.8,45,0.00,,,0.00,WUHU216WMR968SP,2013-02-25 12:06:00,
2013-02-25 04:11:00,30.2,11.8,25.84,SSE,165,3.1,5.8,46,0.00,,,0.00,WUHU216WMR968SP,2013-02-25 12:11:00,
2013-02-25 04:16:00,30.2,11.8,25.84,SSE,161,2.2,5.8,46,0.00,,,0.00,WUHU216WMR968SP,2013-02-25 12:16:00,
2013-02-25 04:21:00,30.2,11.8,25.87,South,174,2.7,4.9,46,0.00,,,0.00,WUHU216WMR968SP,2013-02-25 12:21:00,
2013-02-25 04:26:00,30.2,12.3,25.87,South,173,2.2,4.9,47,0.00,,,0.00,WUHU216WMR968SP,2013-02-25 12:26:00,
2013-02-25 04:31:00,30.2,12.3,25.87,South,174,0.0,4.0,47,0.00,,,0.00,WUHU216WMR968SP,2013-02-25 12:31:00,
2013-02-25 04:36:00,30.2,12.3,25.87,SSE,168,0.0,3.1,47,0.00,,,0.00,WUHU216WMR968SP,2013-02-25 12:36:00,
2013-02-25 04:41:00,30.2,12.8,25.87,SSE,168,0.0,3.1,48,0.00,,,0.00,WUHU216WMR968SP,2013-02-25 12:41:00,
2013-02-25 04:47:00,30.4,13.4,25.87,North,353,2.2,3.6,49,0.00,,,0.00,WUHU216WMR968SP,2013-02-25 12:47:00,
2013-02-25 04:52:00,31.1,15.0,25.87,North,357,2.2,5.8,51,0.00,,,0.00,WUHU216WMR968SP,2013-02-25 12:52:00,
2013-02-25 04:57:00,32.2,17.4,25.87,North,2,3.6,5.8,54,0.00,,,0.00,WUHU216WMR968SP,2013-02-25 12:57:00,
2013-02-25 05:02:00,32.5,18.1,25.87,NNW,345,2.7,5.8,55,0.00,,,0.00,WUHU216WMR968SP,2013-02-25 13:02:00,
2013-02-25 05:07:00,32.7,18.7,25.87,NNW,333,3.6,5.8,56,0.00,,,0.00,WUHU216WMR968SP,2013-02-25 13:07:00,
2013-02-25 05:12:00,32.7,18.7,25.87,North,353,0.0,5.8,56,0.00,,,0.00,WUHU216WMR968SP,2013-02-25 13:12:00,
2013-02-25 05:17:00,32.9,20.6,25.87,North,353,0.0,3.6,60,0.00,,,0.00,WUHU216WMR968SP,2013-02-25 13:17:00,
2013-02-25 05:22:00,32.7,21.2,25.87,North,353,0.0,0.0,62,0.00,,,0.00,WUHU216WMR968SP,2013-02-25 13:22:00,
2013-02-25 05:27:00,32.5,20.6,25.87,North,353,0.0,0.0,61,0.00,,,0.00,WUHU216WMR968SP,2013-02-25 13:27:00,
2013-02-25 05:32:00,32.5,20.6,25.87,North,353,0.0,2.2,61,0.00,,,0.00,WUHU216WMR968SP,2013-02-25 13:32:00,
2013-02-25 05:37:00,32.5,20.6,25.87,North,353,0.0,2.2,61,0.00,,,0.00,WUHU216WMR968SP,2013-02-25 13:37:00,
2013-02-25 05:42:00,32.7,20.8,25.87,North,353,0.0,2.2,61,0.00,,,0.00,WUHU216WMR968SP,2013-02-25 13:42:00,
2013-02-25 05:47:00,32.7,22.3,25.87,North,0,0.0,2.7,65,0.00,,,0.00,WUHU216WMR968SP,2013-02-25 13:47:00,
2013-02-25 05:52:00,32.7,22.7,25.87,ENE,59,0.0,3.1,66,0.00,,,0.00,WUHU216WMR968SP,2013-02-25 13:52:00,
2013-02-25 05:57:00,32.7,22.7,25.87,ENE,59,0.0,3.1,66,0.00,,,0.00,WUHU216WMR968SP,2013-02-25 13:57:00,
2013-02-25 06:02:00,32.9,22.9,25.87,ENE,59,0.0,2.2,66,0.00,,,0.00,WUHU216WMR968SP,2013-02-25 14:02:00,
2013-02-25 06:07:00,32.9,22.9,25.87,ENE,59,0.0,0.0,66,0.00,,,0.00,WUHU216WMR968SP,2013-02-25 14:07:00,
2013-02-25 06:13:00,32.7,22.3,25.87,North,5,0.0,3.1,65,0.00,,,0.00,WUHU216WMR968SP,2013-02-25 14:13:00,
2013-02-25 06:18:00,32.7,22.3,25.87,NNW,336,2.7,4.0,65,0.00,,,0.00,WUHU216WMR968SP,2013-02-25 14:18:00,
2013-02-25 06:23:00,32.4,21.6,25.87,NNW,336,3.6,4.0,64,0.00,,,0.00,WUHU216WMR968SP,2013-02-25 14:23:00,
2013-02-25 06:28:00,32.0,21.3,25.87,NNW,345,3.1,4.9,64,0.00,,,0.00,WUHU216WMR968SP,2013-02-25 14:28:00,
2013-02-25 06:33:00,31.6,20.9,25.87,North,357,3.1,5.4,64,0.00,,,0.00,WUHU216WMR968SP,2013-02-25 14:33:00,
2013-02-25 06:38:00,32.0,22.0,25.87,North,2,6.3,8.7,66,0.00,,,0.00,WUHU216WMR968SP,2013-02-25 14:38:00,
2013-02-25 06:43:00,32.4,21.6,25.87,North,0,5.8,10.1,64,0.00,,,0.00,WUHU216WMR968SP,2013-02-25 14:43:00,
2013-02-25 06:48:00,32.7,20.0,25.87,NNE,17,4.5,10.1,59,0.00,,,0.00,WUHU216WMR968SP,2013-02-25 14:48:00,
2013-02-25 06:53:00,32.7,19.2,25.87,ENE,69,2.7,8.3,57,0.00,,,0.00,WUHU216WMR968SP,2013-02-25 14:53:00,
2013-02-25 06:58:00,32.5,19.0,25.87,ENE,68,0.0,5.8,57,0.00,,,0.00,WUHU216WMR968SP,2013-02-25 14:58:00,
2013-02-25 07:03:00,32.5,19.8,25.90,ENE,69,0.0,2.7,59,0.00,,,0.00,WUHU216WMR968SP,2013-02-25 15:03:00,
2013-02-25 07:08:00,32.5,21.7,25.90,ENE,69,0.0,0.0,64,0.00,,,0.00,WUHU216WMR968SP,2013-02-25 15:08:00,
2013-02-25 07:13:00,32.7,23.7,25.90,East,98,0.0,3.6,69,0.00,,,0.00,WUHU216WMR968SP,2013-02-25 15:13:00,
2013-02-25 07:18:00,32.7,23.7,25.90,NE,43,0.0,3.6,69,0.00,,,0.00,WUHU216WMR968SP,2013-02-25 15:18:00,
2013-02-25 07:23:00,32.7,23.4,25.90,NE,43,0.0,3.1,68,0.00,,,0.00,WUHU216WMR968SP,2013-02-25 15:23:00,
2013-02-25 07:28:00,32.7,22.3,25.90,NNE,30,2.7,4.9,65,0.00,,,0.00,WUHU216WMR968SP,2013-02-25 15:28:00,
2013-02-25 07:33:00,32.9,22.1,25.90,North,5,2.2,4.9,64,0.00,,,0.00,WUHU216WMR968SP,2013-02-25 15:33:00,
2013-02-25 07:38:00,33.1,22.3,25.90,North,3,2.2,3.6,64,0.00,,,0.00,WUHU216WMR968SP,2013-02-25 15:38:00,
2013-02-25 07:43:00,33.4,22.6,25.90,NNW,330,2.2,3.1,64,0.00,,,0.00,WUHU216WMR968SP,2013-02-25 15:43:00,
2013-02-25 07:48:00,33.6,22.0,25.90,North,8,2.7,3.6,62,0.00,,,0.00,WUHU216WMR968SP,2013-02-25 15:48:00,
2013-02-25 07:53:00,33.4,18.5,25.90,North,7,3.1,4.0,54,0.00,,,0.00,WUHU216WMR968SP,2013-02-25 15:53:00,
2013-02-25 07:58:00,33.3,17.1,25.90,NNE,23,2.7,4.0,51,0.00,,,0.00,WUHU216WMR968SP,2013-02-25 15:58:00,
2013-02-25 08:03:00,33.3,17.1,25.93,NNE,13,2.2,4.0,51,0.00,,,0.00,WUHU216WMR968SP,2013-02-25 16:03:00,
2013-02-25 08:08:00,33.6,17.3,25.93,North,8,3.6,4.9,51,0.00,,,0.00,WUHU216WMR968SP,2013-02-25 16:08:00,
2013-02-25 08:13:00,33.8,16.1,25.93,North,11,2.2,4.9,48,0.00,,,0.00,WUHU216WMR968SP,2013-02-25 16:13:00,
2013-02-25 08:18:00,34.2,16.0,25.93,NNE,23,3.1,4.0,47,0.00,,,0.00,WUHU216WMR968SP,2013-02-25 16:18:00,
2013-02-25 08:23:00,34.5,14.7,25.93,North,8,4.5,6.3,44,0.00,,,0.00,WUHU216WMR968SP,2013-02-25 16:23:00,
2013-02-25 08:28:00,34.9,13.4,25.93,North,357,4.9,7.6,41,0.00,,,0.00,WUHU216WMR968SP,2013-02-25 16:28:00,
2013-02-25 08:33:00,35.1,13.6,25.93,NNE,24,3.6,7.6,41,0.00,,,0.00,WUHU216WMR968SP,2013-02-25 16:33:00,
2013-02-25 08:38:00,35.4,13.8,25.93,North,357,6.7,8.3,41,0.00,,,0.00,WUHU216WMR968SP,2013-02-25 16:38:00,
2013-02-25 08:43:00,35.4,13.3,25.93,ENE,69,4.5,8.3,40,0.00,,,0.00,WUHU216WMR968SP,2013-02-25 16:43:00,
2013-02-25 08:48:00,35.6,13.4,25.93,North,357,6.7,10.5,40,0.00,,,0.00,WUHU216WMR968SP,2013-02-25 16:48:00,
2013-02-25 08:53:00,35.6,13.4,25.93,NNE,28,6.7,13.2,40,0.00,,,0.00,WUHU216WMR968SP,2013-02-25 16:53:00,
2013-02-25 08:58:00,35.8,13.6,25.93,NNE,15,6.7,13.2,40,0.00,,,0.00,WUHU216WMR968SP,2013-02-25 16:58:00,
2013-02-25 09:03:00,35.8,13.6,25.93,North,353,8.3,12.3,40,0.00,,,0.00,WUHU216WMR968SP,2013-02-25 17:03:00,
2013-02-25 09:08:00,35.6,13.4,25.93,NNE,14,9.2,12.3,40,0.00,,,0.00,WUHU216WMR968SP,2013-02-25 17:08:00,
2013-02-25 09:13:00,35.8,14.2,25.93,North,5,5.8,11.9,41,0.00,,,0.00,WUHU216WMR968SP,2013-02-25 17:13:00,
2013-02-25 09:18:00,35.8,14.2,25.93,NNE,17,6.3,11.0,41,0.00,,,0.00,WUHU216WMR968SP,2013-02-25 17:18:00,
2013-02-25 09:23:00,35.6,14.0,25.93,NNE,14,5.8,11.0,41,0.00,,,0.00,WUHU216WMR968SP,2013-02-25 17:23:00,
2013-02-25 09:28:00,36.0,14.4,25.93,North,353,7.2,11.0,41,0.00,,,0.00,WUHU216WMR968SP,2013-02-25 17:28:00,
2013-02-25 09:33:00,36.3,15.2,25.93,NNE,22,6.7,10.5,42,0.00,,,0.00,WUHU216WMR968SP,2013-02-25 17:33:00,
2013-02-25 09:38:00,36.7,15.0,25.93,NNE,28,7.2,10.1,41,0.00,,,0.00,WUHU216WMR968SP,2013-02-25 17:38:00,
2013-02-25 09:43:00,36.9,15.2,25.93,North,10,5.4,8.7,41,0.00,,,0.00,WUHU216WMR968SP,2013-02-25 17:43:00,
2013-02-25 09:48:00,36.9,14.6,25.93,NE,45,4.9,8.7,40,0.00,,,0.00,WUHU216WMR968SP,2013-02-25 17:48:00,
2013-02-25 09:53:00,37.0,14.7,25.93,North,353,4.5,8.3,40,0.00,,,0.00,WUHU216WMR968SP,2013-02-25 17:53:00,
2013-02-25 09:58:00,37.6,15.2,25.93,NE,45,4.9,8.3,40,0.00,,,0.00,WUHU216WMR968SP,2013-02-25 17:58:00,
2013-02-25 10:03:00,38.1,15.1,25.96,NNE,22,7.6,10.1,39,0.00,,,0.00,WUHU216WMR968SP,2013-02-25 18:03:00,
2013-02-25 10:08:00,38.5,14.2,25.96,NNE,18,6.3,10.1,37,0.00,,,0.00,WUHU216WMR968SP,2013-02-25 18:08:00,
2013-02-25 10:13:00,38.8,15.1,25.96,North,353,6.7,14.5,38,0.00,,,0.00,WUHU216WMR968SP,2013-02-25 18:13:00,
2013-02-25 10:18:00,39.2,12.9,25.96,NNE,17,3.6,14.5,34,0.00,,,0.00,WUHU216WMR968SP,2013-02-25 18:18:00,
2013-02-25 10:23:00,38.7,12.5,25.96,North,11,4.9,12.3,34,0.00,,,0.00,WUHU216WMR968SP,2013-02-25 18:23:00,
2013-02-25 10:28:00,39.0,14.1,25.96,North,357,4.5,8.7,36,0.00,,,0.00,WUHU216WMR968SP,2013-02-25 18:28:00,
2013-02-25 10:33:00,39.2,12.9,25.93,NNE,33,4.5,8.7,34,0.00,,,0.00,WUHU216WMR968SP,2013-02-25 18:33:00,
2013-02-25 10:38:00,39.2,12.9,25.93,North,353,7.2,11.0,34,0.00,,,0.00,WUHU216WMR968SP,2013-02-25 18:38:00,
2013-02-25 10:43:00,39.4,11.7,25.93,North,353,8.7,12.3,32,0.00,,,0.00,WUHU216WMR968SP,2013-02-25 18:43:00,
2013-02-25 10:48:00,39.6,11.2,25.93,NNE,32,8.3,12.3,31,0.00,,,0.00,WUHU216WMR968SP,2013-02-25 18:48:00,
2013-02-25 10:53:00,39.7,11.3,25.93,North,357,5.8,12.3,31,0.00,,,0.00,WUHU216WMR968SP,2013-02-25 18:53:00,
2013-02-25 10:58:00,39.9,10.7,25.93,NNE,14,4.9,11.0,30,0.00,,,0.00,WUHU216WMR968SP,2013-02-25 18:58:00,
2013-02-25 11:03:00,39.7,9.8,25.93,NE,45,6.3,10.1,29,0.00,,,0.00,WUHU216WMR968SP,2013-02-25 19:03:00,
2013-02-25 11:08:00,39.4,9.5,25.93,NNE,24,6.7,10.5,29,0.00,,,0.00,WUHU216WMR968SP,2013-02-25 19:08:00,
2013-02-25 11:13:00,39.6,9.7,25.93,North,353,8.1,11.9,29,0.00,,,0.00,WUHU216WMR968SP,2013-02-25 19:13:00,
2013-02-25 11:18:00,39.6,9.7,25.93,NNW,342,8.7,12.8,29,0.00,,,0.00,WUHU216WMR968SP,2013-02-25 19:18:00,
2013-02-25 11:23:00,39.2,9.4,25.93,NNE,29,6.7,12.8,29,0.00,,,0.00,WUHU216WMR968SP,2013-02-25 19:23:00,
2013-02-25 11:28:00,39.4,9.5,25.93,NNE,18,5.8,12.3,29,0.00,,,0.00,WUHU216WMR968SP,2013-02-25 19:28:00,
2013-02-25 11:33:00,39.7,9.8,25.93,North,11,9.2,11.0,29,0.00,,,0.00,WUHU216WMR968SP,2013-02-25 19:33:00,
2013-02-25 11:38:00,40.1,10.2,25.93,NE,35,7.6,11.0,29,0.00,,,0.00,WUHU216WMR968SP,2013-02-25 19:38:00,
2013-02-25 11:43:00,40.5,10.5,25.93,North,4,6.3,11.0,29,0.00,,,0.00,WUHU216WMR968SP,2013-02-25 19:43:00,
2013-02-25 11:48:00,40.5,9.7,25.93,NNE,23,8.1,13.2,28,0.00,,,0.00,WUHU216WMR968SP,2013-02-25 19:48:00,
2013-02-25 11:53:00,40.6,9.8,25.93,NNW,329,9.6,13.2,28,0.00,,,0.00,WUHU216WMR968SP,2013-02-25 19:53:00,
2013-02-25 11:58:00,40.8,10.0,25.93,NNE,25,5.8,13.2,28,0.00,,,0.00,WUHU216WMR968SP,2013-02-25 19:58:00,
2013-02-25 12:03:00,40.8,10.0,25.96,NW,315,8.3,10.1,28,0.00,,,0.00,WUHU216WMR968SP,2013-02-25 20:03:00,
2013-02-25 12:08:00,40.3,9.6,25.96,NE,42,7.6,10.1,28,0.00,,,0.00,WUHU216WMR968SP,2013-02-25 20:08:00,
2013-02-25 12:13:00,40.3,9.6,25.96,NNE,23,10.1,14.5,28,0.00,,,0.00,WUHU216WMR968SP,2013-02-25 20:13:00,
2013-02-25 12:18:00,40.6,9.8,25.93,NNE,22,6.3,14.5,28,0.00,,,0.00,WUHU216WMR968SP,2013-02-25 20:18:00,
2013-02-25 12:23:00,40.6,8.2,25.93,NNE,33,6.3,13.2,26,0.00,,,0.00,WUHU216WMR968SP,2013-02-25 20:23:00,
2013-02-25 12:28:00,40.6,8.2,25.93,NE,42,4.9,13.2,26,0.00,,,0.00,WUHU216WMR968SP,2013-02-25 20:28:00,
2013-02-25 12:33:00,41.2,8.7,25.96,NE,40,6.3,10.1,26,0.00,,,0.00,WUHU216WMR968SP,2013-02-25 20:33:00,
2013-02-25 12:38:00,41.7,10.8,25.96,North,349,6.3,10.5,28,0.00,,,0.00,WUHU216WMR968SP,2013-02-25 20:38:00,
2013-02-25 12:43:00,41.7,9.1,25.96,NNE,16,4.5,10.5,26,0.00,,,0.00,WUHU216WMR968SP,2013-02-25 20:43:00,
2013-02-25 12:48:00,41.9,9.3,25.93,North,3,6.3,9.6,26,0.00,,,0.00,WUHU216WMR968SP,2013-02-25 20:48:00,
2013-02-25 12:53:00,42.4,9.7,25.93,NNE,20,6.3,15.0,26,0.00,,,0.00,WUHU216WMR968SP,2013-02-25 20:53:00,
2013-02-25 12:58:00,42.6,9.9,25.93,NNE,17,4.9,15.0,26,0.00,,,0.00,WUHU216WMR968SP,2013-02-25 20:58:00,
2013-02-25 13:03:00,43.0,9.4,25.96,NNE,25,4.9,10.5,25,0.00,,,0.00,WUHU216WMR968SP,2013-02-25 21:03:00,
2013-02-25 13:08:00,42.4,9.7,25.96,NNE,16,5.8,10.5,26,0.00,,,0.00,WUHU216WMR968SP,2013-02-25 21:08:00,
2013-02-25 13:13:00,42.8,9.2,25.96,North,5,4.5,8.3,25,0.00,,,0.00,WUHU216WMR968SP,2013-02-25 21:13:00,
2013-02-25 13:18:00,42.3,7.0,25.93,NE,54,5.8,10.1,23,0.00,,,0.00,WUHU216WMR968SP,2013-02-25 21:18:00,
2013-02-25 13:23:00,42.1,6.8,25.93,North,0,4.9,10.5,23,0.00,,,0.00,WUHU216WMR968SP,2013-02-25 21:23:00,
2013-02-25 13:28:00,42.3,7.0,25.93,NNE,21,5.4,10.5,23,0.00,,,0.00,WUHU216WMR968SP,2013-02-25 21:28:00,
2013-02-25 13:33:00,43.0,7.6,25.93,NE,35,4.0,8.1,23,0.00,,,0.00,WUHU216WMR968SP,2013-02-25 21:33:00,
2013-02-25 13:38:00,42.8,7.4,25.93,NNW,337,8.1,10.1,23,0.00,,,0.00,WUHU216WMR968SP,2013-02-25 21:38:00,
2013-02-25 13:43:00,42.4,5.1,25.93,North,353,6.3,10.5,21,0.00,,,0.00,WUHU216WMR968SP,2013-02-25 21:43:00,
2013-02-25 13:48:00,42.4,5.1,25.96,NNE,21,7.6,10.5,21,0.00,,,0.00,WUHU216WMR968SP,2013-02-25 21:48:00,
2013-02-25 13:53:00,42.8,4.4,25.96,NNE,23,8.3,11.4,20,0.00,,,0.00,WUHU216WMR968SP,2013-02-25 21:53:00,
2013-02-25 13:58:00,42.8,4.4,25.96,North,0,4.0,12.3,20,0.00,,,0.00,WUHU216WMR968SP,2013-02-25 21:58:00,
2013-02-25 14:03:00,42.6,5.3,25.93,NNW,339,5.8,12.3,21,0.00,,,0.00,WUHU216WMR968SP,2013-02-25 22:03:00,
2013-02-25 14:08:00,42.4,5.1,25.93,NNE,14,5.4,12.3,21,0.00,,,0.00,WUHU216WMR968SP,2013-02-25 22:08:00,
2013-02-25 14:13:00,42.6,5.3,25.93,North,5,4.0,11.0,21,0.00,,,0.00,WUHU216WMR968SP,2013-02-25 22:13:00,
2013-02-25 14:18:00,43.0,4.6,25.93,North,357,7.6,9.6,20,0.00,,,0.00,WUHU216WMR968SP,2013-02-25 22:18:00,
2013-02-25 14:23:00,43.3,4.8,25.93,North,7,6.3,11.0,20,0.00,,,0.00,WUHU216WMR968SP,2013-02-25 22:23:00,
2013-02-25 14:28:00,42.4,5.1,25.93,North,2,5.4,11.0,21,0.00,,,0.00,WUHU216WMR968SP,2013-02-25 22:28:00,
2013-02-25 14:33:00,41.9,4.7,25.93,NNW,344,4.5,11.0,21,0.00,,,0.00,WUHU216WMR968SP,2013-02-25 22:33:00,
2013-02-25 14:38:00,41.5,6.3,25.93,NNE,14,4.0,8.3,23,0.00,,,0.00,WUHU216WMR968SP,2013-02-25 22:38:00,
2013-02-25 14:43:00,41.2,6.1,25.93,NNW,342,6.7,10.1,23,0.00,,,0.00,WUHU216WMR968SP,2013-02-25 22:43:00,
2013-02-25 14:48:00,41.5,6.3,25.96,NNW,348,4.0,10.1,23,0.00,,,0.00,WUHU216WMR968SP,2013-02-25 22:48:00,
2013-02-25 14:53:00,41.0,3.9,25.96,North,353,4.9,7.6,21,0.00,,,0.00,WUHU216WMR968SP,2013-02-25 22:53:00,
2013-02-25 14:58:00,39.7,4.8,25.96,NNE,19,5.4,7.2,23,0.00,,,0.00,WUHU216WMR968SP,2013-02-25 22:58:00,
2013-02-25 15:03:00,39.2,2.4,25.96,NE,50,4.0,6.3,21,0.00,,,0.00,WUHU216WMR968SP,2013-02-25 23:03:00,
2013-02-25 15:08:00,38.8,4.9,25.96,ENE,63,4.5,6.3,24,0.00,,,0.00,WUHU216WMR968SP,2013-02-25 23:08:00,
2013-02-25 15:13:00,38.5,1.8,25.96,NE,55,4.0,6.7,21,0.00,,,0.00,WUHU216WMR968SP,2013-02-25 23:13:00,
2013-02-25 15:18:00,38.5,1.8,25.96,ENE,57,4.5,6.7,21,0.00,,,0.00,WUHU216WMR968SP,2013-02-25 23:18:00,
2013-02-25 15:23:00,38.8,4.9,25.96,ENE,74,2.2,6.3,24,0.00,,,0.00,WUHU216WMR968SP,2013-02-25 23:23:00,
2013-02-25 15:28:00,39.0,5.1,25.96,NE,45,2.2,4.5,24,0.00,,,0.00,WUHU216WMR968SP,2013-02-25 23:28:00,
2013-02-25 15:33:00,39.0,5.1,25.96,North,3,2.2,5.4,24,0.00,,,0.00,WUHU216WMR968SP,2013-02-25 23:33:00,
2013-02-25 15:38:00,38.7,4.8,25.96,NE,43,0.0,6.3,24,0.00,,,0.00,WUHU216WMR968SP,2013-02-25 23:38:00,
2013-02-25 15:43:00,38.8,4.9,25.96,NE,45,3.1,6.3,24,0.00,,,0.00,WUHU216WMR968SP,2013-02-25 23:43:00,
2013-02-25 15:48:00,38.7,4.8,25.96,NE,56,3.1,4.0,24,0.00,,,0.00,WUHU216WMR968SP,2013-02-25 23:48:00,
2013-02-25 15:53:00,38.1,4.3,25.96,NE,49,4.0,4.9,24,0.00,,,0.00,WUHU216WMR968SP,2013-02-25 23:53:00,
2013-02-25 15:58:00,38.1,4.3,25.96,NE,45,3.1,4.9,24,0.00,,,0.00,WUHU216WMR968SP,2013-02-25 23:58:00,
2013-02-25 16:03:00,38.1,4.3,25.96,NE,47,0.0,5.4,24,0.00,,,0.00,WUHU216WMR968SP,2013-02-26 00:03:00,
2013-02-25 16:08:00,37.8,1.3,25.96,NE,46,3.6,5.4,21,0.00,,,0.00,WUHU216WMR968SP,2013-02-26 00:08:00,
2013-02-25 16:13:00,37.6,3.9,25.96,NE,55,3.1,5.4,24,0.00,,,0.00,WUHU216WMR968SP,2013-02-26 00:13:00,
2013-02-25 16:19:00,37.6,3.9,25.96,ENE,58,2.2,4.0,24,0.00,,,0.00,WUHU216WMR968SP,2013-02-26 00:19:00,
2013-02-25 16:24:00,37.8,4.1,25.96,NE,45,2.2,4.0,24,0.00,,,0.00,WUHU216WMR968SP,2013-02-26 00:24:00,
2013-02-25 16:29:00,37.9,4.2,25.96,North,9,3.6,4.9,24,0.00,,,0.00,WUHU216WMR968SP,2013-02-26 00:29:00,
2013-02-25 16:34:00,38.5,4.7,25.93,NE,51,2.2,4.9,24,0.00,,,0.00,WUHU216WMR968SP,2013-02-26 00:34:00,
2013-02-25 16:39:00,38.5,4.7,25.93,NE,49,2.2,5.8,24,0.00,,,0.00,WUHU216WMR968SP,2013-02-26 00:39:00,
2013-02-25 16:44:00,38.1,4.3,25.93,NNW,345,2.7,5.8,24,0.00,,,0.00,WUHU216WMR968SP,2013-02-26 00:44:00,
2013-02-25 16:49:00,38.5,6.4,25.93,NNW,335,4.0,5.4,26,0.00,,,0.00,WUHU216WMR968SP,2013-02-26 00:49:00,
2013-02-25 16:54:00,38.8,6.6,25.93,NNW,344,6.3,7.2,26,0.00,,,0.00,WUHU216WMR968SP,2013-02-26 00:54:00,
2013-02-25 16:59:00,38.8,6.6,25.93,NNE,12,4.5,8.7,26,0.00,,,0.00,WUHU216WMR968SP,2013-02-26 00:59:00,
2013-02-25 17:04:00,38.5,6.4,25.93,ENE,70,2.7,8.7,26,0.00,,,0.00,WUHU216WMR968SP,2013-02-26 01:04:00,
2013-02-25 17:09:00,37.9,5.9,25.93,NE,54,3.1,5.8,26,0.00,,,0.00,WUHU216WMR968SP,2013-02-26 01:09:00,
2013-02-25 17:14:00,37.0,7.5,25.93,NE,40,4.5,5.8,29,0.00,,,0.00,WUHU216WMR968SP,2013-02-26 01:14:00,
2013-02-25 17:19:00,36.7,7.9,25.93,NE,52,4.5,5.8,30,0.00,,,0.00,WUHU216WMR968SP,2013-02-26 01:19:00,
2013-02-25 17:24:00,36.3,7.6,25.93,NE,55,2.7,5.8,30,0.00,,,0.00,WUHU216WMR968SP,2013-02-26 01:24:00,
2013-02-25 17:29:00,36.1,7.4,25.93,ENE,57,4.0,5.8,30,0.00,,,0.00,WUHU216WMR968SP,2013-02-26 01:29:00,
2013-02-25 17:34:00,36.0,7.3,25.93,North,9,2.2,5.8,30,0.00,,,0.00,WUHU216WMR968SP,2013-02-26 01:34:00,
2013-02-25 17:39:00,36.0,7.3,25.93,NE,42,2.2,5.4,30,0.00,,,0.00,WUHU216WMR968SP,2013-02-26 01:39:00,
2013-02-25 17:44:00,36.0,7.3,25.93,NNE,22,4.0,7.6,30,0.00,,,0.00,WUHU216WMR968SP,2013-02-26 01:44:00,
2013-02-25 17:49:00,35.6,7.0,25.93,NNW,336,4.0,7.6,30,0.00,,,0.00,WUHU216WMR968SP,2013-02-26 01:49:00,
2013-02-25 17:54:00,35.2,7.3,25.93,North,353,2.7,6.3,31,0.00,,,0.00,WUHU216WMR968SP,2013-02-26 01:54:00,
2013-02-25 17:59:00,34.9,7.1,25.93,NNE,27,2.7,5.4,31,0.00,,,0.00,WUHU216WMR968SP,2013-02-26 01:59:00,
2013-02-25 18:04:00,34.5,6.7,25.96,North,7,2.7,5.4,31,0.00,,,0.00,WUHU216WMR968SP,2013-02-26 02:04:00,
2013-02-25 18:09:00,34.3,6.5,25.96,ENE,58,2.2,5.4,31,0.00,,,0.00,WUHU216WMR968SP,2013-02-26 02:09:00,
2013-02-25 18:14:00,34.5,6.7,25.96,North,0,3.6,5.4,31,0.00,,,0.00,WUHU216WMR968SP,2013-02-26 02:14:00,
2013-02-25 18:19:00,34.7,7.6,25.96,North,6,3.6,5.4,32,0.00,,,0.00,WUHU216WMR968SP,2013-02-26 02:19:00,
2013-02-25 18:24:00,34.9,7.1,25.96,North,1,4.0,5.4,31,0.00,,,0.00,WUHU216WMR968SP,2013-02-26 02:24:00,
2013-02-25 18:29:00,34.7,6.9,25.96,NNE,20,3.1,5.8,31,0.00,,,0.00,WUHU216WMR968SP,2013-02-26 02:29:00,
2013-02-25 18:34:00,34.3,6.5,25.96,NNE,16,4.5,5.8,31,0.00,,,0.00,WUHU216WMR968SP,2013-02-26 02:34:00,
2013-02-25 18:39:00,34.0,7.0,25.96,NNE,33,3.1,5.4,32,0.00,,,0.00,WUHU216WMR968SP,2013-02-26 02:39:00,
2013-02-25 18:44:00,33.6,6.6,25.96,North,357,2.7,5.4,32,0.00,,,0.00,WUHU216WMR968SP,2013-02-26 02:44:00,
2013-02-25 18:49:00,33.4,6.5,25.96,NNE,24,2.7,5.4,32,0.00,,,0.00,WUHU216WMR968SP,2013-02-26 02:49:00,
2013-02-25 18:54:00,33.4,7.1,25.96,North,357,2.7,4.0,33,0.00,,,0.00,WUHU216WMR968SP,2013-02-26 02:54:00,
2013-02-25 18:59:00,33.3,6.4,25.96,NNE,22,2.7,4.0,32,0.00,,,0.00,WUHU216WMR968SP,2013-02-26 02:59:00,
2013-02-25 19:04:00,33.1,6.2,25.96,ENE,58,0.0,4.0,32,0.00,,,0.00,WUHU216WMR968SP,2013-02-26 03:04:00,
2013-02-25 19:09:00,32.9,6.7,25.96,ENE,57,2.2,3.6,33,0.00,,,0.00,WUHU216WMR968SP,2013-02-26 03:09:00,
2013-02-25 19:14:00,32.9,6.7,25.96,ENE,57,0.0,3.1,33,0.00,,,0.00,WUHU216WMR968SP,2013-02-26 03:14:00,
2013-02-25 19:19:00,32.7,6.5,25.96,NE,41,0.0,3.1,33,0.00,,,0.00,WUHU216WMR968SP,2013-02-26 03:19:00,
2013-02-25 19:24:00,32.7,7.2,25.96,NE,46,3.1,4.0,34,0.00,,,0.00,WUHU216WMR968SP,2013-02-26 03:24:00,
2013-02-25 19:29:00,32.7,7.2,25.96,NE,53,0.0,4.0,34,0.00,,,0.00,WUHU216WMR968SP,2013-02-26 03:29:00,
2013-02-25 19:34:00,32.7,7.2,25.96,NE,53,0.0,3.1,34,0.00,,,0.00,WUHU216WMR968SP,2013-02-26 03:34:00,
2013-02-25 19:39:00,32.5,7.0,25.96,NNE,25,2.7,4.0,34,0.00,,,0.00,WUHU216WMR968SP,2013-02-26 03:39:00,
2013-02-25 19:44:00,32.2,7.4,25.96,NE,38,2.2,4.0,35,0.00,,,0.00,WUHU216WMR968SP,2013-02-26 03:44:00,
2013-02-25 19:49:00,32.2,7.4,25.96,NE,42,2.2,3.1,35,0.00,,,0.00,WUHU216WMR968SP,2013-02-26 03:49:00,
2013-02-25 19:54:00,32.0,7.8,25.96,ENE,63,0.0,4.9,36,0.00,,,0.00,WUHU216WMR968SP,2013-02-26 03:54:00,
2013-02-25 19:59:00,32.0,7.8,25.96,ENE,64,2.2,4.9,36,0.00,,,0.00,WUHU216WMR968SP,2013-02-26 03:59:00,
2013-02-25 20:04:00,32.0,8.4,25.99,ENE,63,0.0,3.1,37,0.00,,,0.00,WUHU216WMR968SP,2013-02-26 04:04:00,
2013-02-25 20:09:00,32.2,8.6,25.99,ENE,63,0.0,3.1,37,0.00,,,0.00,WUHU216WMR968SP,2013-02-26 04:09:00,
2013-02-25 20:14:00,32.2,8.6,25.99,ENE,64,0.0,3.1,37,0.00,,,0.00,WUHU216WMR968SP,2013-02-26 04:14:00,
2013-02-25 20:19:00,31.8,8.2,25.99,ENE,63,0.0,3.1,37,0.00,,,0.00,WUHU216WMR968SP,2013-02-26 04:19:00,
2013-02-25 20:24:00,31.6,8.7,25.99,ENE,61,0.0,3.1,38,0.00,,,0.00,WUHU216WMR968SP,2013-02-26 04:24:00,
2013-02-25 20:29:00,31.3,8.4,25.99,ENE,57,0.0,4.9,38,0.00,,,0.00,WUHU216WMR968SP,2013-02-26 04:29:00,
2013-02-25 20:34:00,31.3,8.4,25.99,NNE,29,2.2,4.9,38,0.00,,,0.00,WUHU216WMR968SP,2013-02-26 04:34:00,
2013-02-25 20:39:00,31.6,8.7,25.99,North,8,2.7,4.9,38,0.00,,,0.00,WUHU216WMR968SP,2013-02-26 04:39:00,
2013-02-25 20:44:00,31.6,8.7,25.99,NE,39,2.2,5.4,38,0.00,,,0.00,WUHU216WMR968SP,2013-02-26 04:44:00,
2013-02-25 20:49:00,31.5,8.6,25.99,NE,42,0.0,5.4,38,0.00,,,0.00,WUHU216WMR968SP,2013-02-26 04:49:00,
2013-02-25 20:54:00,31.5,8.0,25.99,ESE,109,0.0,4.0,37,0.00,,,0.00,WUHU216WMR968SP,2013-02-26 04:54:00,
2013-02-25 20:59:00,31.3,7.8,25.99,SE,138,2.7,4.0,37,0.00,,,0.00,WUHU216WMR968SP,2013-02-26 04:59:00,
2013-02-25 21:04:00,31.1,7.6,25.99,ESE,118,2.7,4.0,37,0.00,,,0.00,WUHU216WMR968SP,2013-02-26 05:04:00,
2013-02-25 21:09:00,31.1,8.2,25.99,ESE,122,0.0,3.6,38,0.00,,,0.00,WUHU216WMR968SP,2013-02-26 05:09:00,
2013-02-25 21:14:00,30.9,8.6,25.99,SE,125,0.0,3.6,39,0.00,,,0.00,WUHU216WMR968SP,2013-02-26 05:14:00,
2013-02-25 21:19:00,30.7,8.4,25.99,SE,126,0.0,3.1,39,0.00,,,0.00,WUHU216WMR968SP,2013-02-26 05:19:00,
2013-02-25 21:24:00,30.4,8.2,25.99,SE,128,0.0,2.7,39,0.00,,,0.00,WUHU216WMR968SP,2013-02-26 05:24:00,
2013-02-25 21:29:00,30.2,8.6,25.99,SE,128,0.0,2.7,40,0.00,,,0.00,WUHU216WMR968SP,2013-02-26 05:29:00,
2013-02-25 21:34:00,30.0,8.4,25.99,SE,127,0.0,0.0,40,0.00,,,0.00,WUHU216WMR968SP,2013-02-26 05:34:00,
2013-02-25 21:39:00,29.8,8.2,25.99,SE,128,0.0,0.0,40,0.00,,,0.00,WUHU216WMR968SP,2013-02-26 05:39:00,
2013-02-25 21:44:00,29.5,7.9,25.99,ENE,65,0.0,3.1,40,0.00,,,0.00,WUHU216WMR968SP,2013-02-26 05:44:00,
2013-02-25 21:49:00,29.5,8.5,25.99,NE,51,0.0,3.1,41,0.00,,,0.00,WUHU216WMR968SP,2013-02-26 05:49:00,
2013-02-25 21:54:00,29.3,8.3,25.99,NE,51,0.0,2.7,41,0.00,,,0.00,WUHU216WMR968SP,2013-02-26 05:54:00,
2013-02-25 21:59:00,29.3,8.3,25.99,NE,52,0.0,0.0,41,0.00,,,0.00,WUHU216WMR968SP,2013-02-26 05:59:00,
2013-02-25 22:04:00,29.1,8.1,25.99,East,92,0.0,3.1,41,0.00,,,0.00,WUHU216WMR968SP,2013-02-26 06:04:00,
2013-02-25 22:09:00,28.9,7.9,25.99,East,92,0.0,3.1,41,0.00,,,0.00,WUHU216WMR968SP,2013-02-26 06:09:00,
2013-02-25 22:14:00,28.6,7.7,25.99,East,92,0.0,2.7,41,0.00,,,0.00,WUHU216WMR968SP,2013-02-26 06:14:00,
2013-02-25 22:19:00,28.6,7.7,25.99,East,92,0.0,2.7,41,0.00,,,0.00,WUHU216WMR968SP,2013-02-26 06:19:00,
2013-02-25 22:24:00,28.4,7.5,25.99,East,92,0.0,2.7,41,0.00,,,0.00,WUHU216WMR968SP,2013-02-26 06:24:00,
2013-02-25 22:29:00,28.2,7.3,25.99,East,92,0.0,0.0,41,0.00,,,0.00,WUHU216WMR968SP,2013-02-26 06:29:00,
2013-02-25 22:34:00,28.2,7.9,26.02,ENE,62,0.0,2.7,42,0.00,,,0.00,WUHU216WMR968SP,2013-02-26 06:34:00,
2013-02-25 22:39:00,28.0,7.1,26.02,NE,43,2.2,2.7,41,0.00,,,0.00,WUHU216WMR968SP,2013-02-26 06:39:00,
2013-02-25 22:44:00,28.2,7.3,26.02,NE,43,0.0,2.7,41,0.00,,,0.00,WUHU216WMR968SP,2013-02-26 06:44:00,
2013-02-25 22:49:00,28.2,7.3,26.02,NE,43,0.0,2.7,41,0.00,,,0.00,WUHU216WMR968SP,2013-02-26 06:49:00,
2013-02-25 22:54:00,28.0,7.1,26.02,NE,43,0.0,2.2,41,0.00,,,0.00,WUHU216WMR968SP,2013-02-26 06:54:00,
2013-02-25 22:59:00,28.2,7.3,26.02,NNW,327,3.1,3.6,41,0.00,,,0.00,WUHU216WMR968SP,2013-02-26 06:59:00,
2013-02-25 23:04:00,28.2,7.3,26.02,NW,316,2.2,5.4,41,0.00,,,0.00,WUHU216WMR968SP,2013-02-26 07:04:00,
2013-02-25 23:09:00,28.0,7.1,26.02,North,0,3.6,5.4,41,0.00,,,0.00,WUHU216WMR968SP,2013-02-26 07:09:00,
2013-02-25 23:14:00,28.0,7.1,26.02,North,11,4.0,4.9,41,0.00,,,0.00,WUHU216WMR968SP,2013-02-26 07:14:00,
2013-02-25 23:19:00,28.0,7.7,26.02,NNE,23,2.7,5.4,42,0.00,,,0.00,WUHU216WMR968SP,2013-02-26 07:19:00,
2013-02-25 23:24:00,27.7,7.4,26.02,NNE,33,0.0,5.4,42,0.00,,,0.00,WUHU216WMR968SP,2013-02-26 07:24:00,
2013-02-25 23:29:00,27.3,7.0,26.02,NE,37,0.0,4.0,42,0.00,,,0.00,WUHU216WMR968SP,2013-02-26 07:29:00,
2013-02-25 23:34:00,27.3,7.6,26.02,NE,51,0.0,2.7,43,0.00,,,0.00,WUHU216WMR968SP,2013-02-26 07:34:00,
2013-02-25 23:39:00,27.3,7.6,26.02,NE,51,0.0,2.7,43,0.00,,,0.00,WUHU216WMR968SP,2013-02-26 07:39:00,
2013-02-25 23:44:00,27.0,7.3,26.02,NE,51,0.0,0.0,43,0.00,,,0.00,WUHU216WMR968SP,2013-02-26 07:44:00,
2013-02-25 23:49:00,26.8,7.6,26.02,NE,52,0.0,0.0,44,0.00,,,0.00,WUHU216WMR968SP,2013-02-26 07:49:00,
2013-02-25 23:54:00,26.4,7.3,26.02,NE,51,2.2,3.1,44,0.00,,,0.00,WUHU216WMR968SP,2013-02-26 07:54:00,
2013-02-25 23:59:00,26.2,7.1,26.02,ENE,69,0.0,3.1,44,0.00,,,0.00,WUHU216WMR968SP,2013-02-26 07:59:00,